sat.trackr.live / text

‹ back to catalog

JILIN-1 GAOFEN 3D27

NORAD 52444 · 2022-048B

PAYLOAD ACTIVE UNKNOWN

§ Identity

Operator
Country
PRC
Launch date
2022-05-05
Launch site
TAISC
Launch vehicle
Mass (kg)
RCS (m²)

External: N2YO · Heavens-Above · Gunter

§ Orbital elements

Epoch: 2026-05-25T04:27:31.692672Z

Period
91.72 min
Inclination
97.5685°
Eccentricity
0.0004735
Mean motion
15.70041652 rev/d
Perigee alt
355.6 km
Apogee alt
362.0 km
Semi-major
6,736.9 km
B*
7.9120e-4
RAAN
257.1377°
Arg perigee
137.6271°
Mean anomaly
222.5357°
Rev number
22,586

§ Raw data

JILIN-1 GAOFEN 3D271 52444U 22048B   26145.18578348  .00095953  00000+0  79120-3 0  99992 52444  97.5685 257.1377 0004735 137.6271 222.5357 15.70041652225869

JSON: /api/v1/satellites/52444 · /tle

For live sub-satellite position, see the globe view (requires WebGL).

§ Visibility from observer

Set your observer location to see the next 7 days of passes ≥ 10°. The values pass through the URL so the page stays shareable.

No JS? Fill the form by hand. The geolocation button needs JavaScript.

§ Radio — SatNOGS DB

ModeDescriptionDownlinkUplink
FM Jillin Mysterious Pip 1.616 GHz

1 transmitter · refreshed weekly from db.satnogs.org